Flag for Sao Tome and Principe Weather past 2 weeks in São Tomé, Sao Tome and Principe

Now
81 °F

Partly sunny.


Feels Like: 86 °F
Forecast: 80 / 85 °F
Wind: 5 mph from Southwest

Location: S. Tome

Current Time: May 23, 2015 at 9:24:34 AM

Latest Report: May 23, 2015 at 8:00 AM


Visibility: N/A

Pressure: 29.95 "Hg

Humidity: 84%

Dew point: 75 °F

Location of São ToméLocation

Historic Weather in São Tomé — Graph

°F

São Tomé temperature yesterday

Maximum temperature yesterday: 84 °F (at 3:00 PM)
Minimum temperature yesterday: 73 °F (at 12:00 AM)
Average temperature yesterday: 79 °F

Past Weeks' High & Low Weather Summary

 TemperatureHumidityPressure
High90 °F (May 15, 12:00 PM)94% (May 8, 9:00 PM)29.98 "Hg (May 8, 9:00 PM)
Low73 °F (May 9, 7:00 AM)62% (May 17, 3:00 PM)29.80 "Hg (May 12, 3:00 PM)
Average81 °F82%29.88 "Hg
* Reported May 8 8:00 AM — May 23 8:00 AM, São Tomé, Weather by CustomWeather, © 2015

Note: Actual official high and low records may vary slightly from our data, if they occured in-between our weather recording intervals... More about our weather records

Advertising

São Tomé weather history for previous 24 hours

 ConditionsComfort  
Time TempWeatherWind HumidityBarometerVisibility
8:00 AM
Sat, May 23
81 °FPartly sunny.5 mph84%29.95 "HgN/A
7:00 AM79 °FPartly sunny.No wind89%29.92 "HgN/A
6:00 AM79 °FPartly sunny.7 mph89%29.89 "HgN/A
5:00 AM77 °FPassing clouds.5 mph94%29.89 "HgN/A
4:00 AM77 °FPassing clouds.9 mph94%29.89 "HgN/A
2:00 AM79 °FPassing clouds.5 mph84%29.89 "HgN/A
12:00 AM79 °FPassing clouds.7 mph89%29.92 "HgN/A
11:00 PM
Fri, May 22
79 °FPassing clouds.2 mph89%29.92 "HgN/A
10:00 PM81 °FPassing clouds.No wind84%29.92 "HgN/A
8:00 PM81 °FPassing clouds.2 mph84%29.92 "HgN/A
7:00 PM82 °FPassing clouds.2 mph79%29.92 "HgN/A
6:00 PM82 °FPassing clouds.5 mph79%29.92 "HgN/A
4:00 PM84 °FScattered clouds.5 mph79%29.89 "HgN/A
3:00 PM84 °FScattered clouds.2 mph79%29.89 "HgN/A
2:00 PM82 °FPartly sunny.2 mph74%29.92 "HgN/A
1:00 PM81 °FPartly sunny.7 mph79%29.89 "HgN/A
12:00 PM81 °FPartly sunny.6 mph79%29.89 "HgN/A
11:00 AM81 °FPartly sunny.7 mph84%29.92 "HgN/A
10:00 AM79 °FPartly sunny.7 mph79%29.95 "HgN/A
Weather by CustomWeather, © 2015

See weather overviewHow to use our weather pages